[[{"header":{"parameterUnit":"m.s-1","parameterCategory":1,"la1":30.2991,"la2":30.254,"lo1":-89.0895,"lo2":-89.0444,"dy":0.0017,"dx":0.0017,"nx":28,"ny":28,"refTime":"2025-11-29T03:00:00:Z","depth":0,"parameterNumber":2,"parameterNumberName":"U-component_of_WINDS"},"data":[0,0,0,0,0,0,0,0,0,0,0,0,0,0,0,0,0,0,0,0,0,0,0,0,0,0,0,0,0,0,0,0,0,0,0,0,0,0,0,0,0,0,0,0,0,0,0,0,0,0,0,0,0,0,0,0,0,0,-6.1766,-6.1766,0,-6.1759,-6.1759,-6.1759,-6.1512,-6.1506,-6.1499,-6.1493,-6.1489,-6.1495,-6.1501,0,0,0,0,0,0,0,0,0,0,0,0,0,-6.1568,-6.1573,-6.1766,-6.1766,-6.1766,-6.1759,-6.1759,-6.1759,-6.1513,-6.1506,-6.1498,-6.149,-6.1487,-6.1494,-6.1501,0,0,0,0,0,0,0,0,0,0,0,0,0,-6.1617,-6.1574,-6.1766,-6.1642,-6.1631,-6.1759,-6.1759,-6.1759,-6.1515,-6.1505,-6.1496,-6.1487,-6.1485,-6.1494,-6.1502,-6.1749,0,0,-6.1529,-6.1533,0,0,0,0,0,0,0,0,-6.1614,-6.1624,-6.1661,-6.1651,-6.1639,-6.1627,-6.1687,-6.1756,-6.1517,-6.1559,-6.1493,-6.1482,-6.1543,-6.1546,-6.1566,-6.1749,-6.1748,-6.153,-6.1535,-6.1539,-6.1541,0,0,0,0,0,0,0,-6.1611,-6.1623,-6.1763,-6.1662,-6.1648,-6.1588,-6.1584,-6.1699,-6.1605,-6.1555,-6.1537,-6.1539,-6.1535,-6.1558,-6.1564,-6.1748,-6.153,-6.1537,-6.1543,-6.1546,-6.2131,-6.2141,0,0,0,0,0,0,-6.1625,-6.1622,-6.1763,-6.1763,-6.1603,-6.1599,-6.1595,-6.164,-6.1603,-6.1588,-6.1548,-6.1528,-6.1548,-6.1554,-6.1563,-6.1848,-6.1539,-6.1547,-6.1552,-6.2121,-6.2133,-6.2144,0,0,0,0,0,0,-6.1621,-6.164,-6.1764,-6.1688,-6.1699,-6.1613,-6.1666,-6.1645,-6.1668,-6.1598,-6.158,-6.1589,-6.1541,-6.1551,-6.1704,-6.1844,-6.1551,-6.1559,-6.2109,-6.2125,-6.2139,-6.2421,0,0,0,0,0,0,-6.1617,-6.164,-6.1733,-6.1692,-6.1704,-6.1905,-6.1674,-6.1652,-6.1684,-6.1658,-6.1631,-6.1618,-6.1534,-6.1692,-6.1713,-6.1851,-6.1566,-6.2096,-6.2116,-6.2134,-6.2399,-6.2444,-6.2483,0,0,0,0,0,-6.1611,-6.1813,-6.1738,-6.1757,-6.1818,-6.1914,-6.1921,-6.1819,-6.1696,-6.1788,-6.1743,-6.1619,-6.1826,-6.171,-6.1731,-6.1875,-6.2086,-6.211,-6.2133,-6.238,-6.2436,-6.2482,0,0,0,0,0,0,-6.1874,-6.1806,-6.1722,-6.1917,-6.1923,-6.1872,-6.1985,-6.1881,-6.1923,-6.1897,-6.177,-6.1767,-6.194,-6.1922,-6.1794,-6.211,-6.1934,-6.1963,-6.2115,-6.2167,-6.2209,-6.2209,-6.1573,0,0,0,0,0,-6.1955,-6.2038,-6.1973,-6.2152,-6.2159,-6.2073,-6.2111,-6.2032,-6.2033,-6.2034,-6.2,-6.2007,-6.2072,-6.2119,-6.2176,-6.2395,-6.2386,-6.2504,-6.2547,-6.2582,-6.2608,-6.2721,-6.2773,-6.222,-6.222,-6.222,0,0,-6.2123,-6.2095,-6.2156,-6.2204,-6.2199,-6.2288,-6.2076,-6.218,-6.2244,-6.205,-6.2192,-6.2168,-6.2166,-6.2354,-6.2434,-6.2344,-6.2758,-6.2611,-6.264,-6.2646,-6.275,-6.2802,-6.2849,-6.2236,-6.2233,-6.2231,0,0,-6.2473,-6.2462,-6.2608,-6.2607,-6.2602,-6.2543,-6.2579,-6.2543,-6.2519,-6.2659,-6.2515,-6.2591,-6.2708,-6.2712,-6.273,-6.3083,-6.297,-6.3105,-6.3325,-6.3438,-6.3481,-6.3519,-6.3644,-6.369,-6.3132,-6.3132,-6.3133,0,-6.2682,-6.281,-6.2697,-6.2809,-6.2835,-6.2662,-6.281,-6.2815,-6.283,-6.2852,-6.2751,-6.2893,-6.2881,-6.3066,-6.3152,-6.3172,-6.3209,-6.3107,-6.3484,-6.3521,-6.3554,-6.3672,-6.3719,-6.3149,-6.3147,-6.3145,-6.3144,0,-6.3067,-6.3158,-6.3277,-6.3294,-6.3333,-6.3463,-6.337,-6.3423,-6.3342,-6.3294,-6.3438,-6.3417,-6.3466,-6.3504,-6.3427,-6.3679,-6.3623,-6.3506,-6.3326,-6.3625,-6.3733,-6.3778,-6.3172,-6.3166,-6.3161,-6.3157,0,0,-6.3583,-6.3535,-6.3581,-6.3586,-6.3568,-6.3636,-6.3758,-6.3805,-6.3853,-6.3869,-6.3968,-6.4071,-6.3961,-6.3982,-6.3903,-6.4002,-6.4281,-6.3871,-6.3869,-6.3947,-6.4557,-6.4645,-6.4699,-6.4206,-6.4215,-6.4221,-6.4557,0,-6.3921,-6.4125,-6.4027,-6.4243,-6.4325,-6.4163,-6.4269,-6.427,-6.4228,-6.4292,-6.4246,-6.4321,-6.4171,-6.4182,-6.4273,-6.4228,-6.4402,-6.4203,-6.4297,-6.4302,-6.4301,-6.4756,-6.4849,-6.5167,-6.4598,-6.4605,-6.4611,0,-6.4342,-6.4374,-6.4599,-6.4564,-6.4595,-6.4692,-6.4727,-6.479,-6.4788,-6.475,-6.4774,-6.4672,-6.4789,-6.4612,-6.4772,-6.4639,-6.4672,-6.4656,-6.4666,-6.467,-6.4474,-6.4771,-6.5266,-6.5313,-6.4676,-6.4671,-6.4666,0,-6.4694,-6.4794,-6.4941,-6.495,-6.4914,-6.4986,-6.4975,-6.4963,-6.4997,-6.5028,-6.5049,-6.5095,-6.5119,-6.5157,-6.507,-6.4949,-6.5242,-6.5058,-6.5214,-6.5217,-6.5282,-6.5279,-6.5788,-6.5307,-6.5306,-6.5305,-6.5304,0,-6.5081,-6.5224,-6.5098,-6.5189,-6.5344,-6.5231,-6.5388,-6.5359,-6.535,-6.5432,-6.5295,-6.5375,-6.5255,-6.5324,-6.5257,-6.5399,-6.5412,-6.5385,-6.5365,-6.5397,-6.54,-6.5415,-6.5391,-6.5318,-6.5315,-6.5312,-6.531,0,-6.55,-6.5421,-6.557,-6.5524,-6.5515,-6.5632,-6.5592,-6.5674,-6.5623,-6.5728,-6.5747,-6.5667,-6.5741,-6.5658,-6.5725,-6.568,-6.5872,-6.5821,-6.5873,-6.5858,-6.6018,-6.6004,-6.6554,-6.662,-6.6098,-6.6104,-6.6108,0,-6.5751,-6.5857,-6.5822,-6.5866,-6.5863,-6.5937,-6.597,-6.5863,-6.5904,-6.5909,-6.5991,-6.6052,-6.6096,-6.6221,-6.617,-6.6221,-6.6168,-6.6358,-6.6175,-6.6203,-6.6169,-6.6163,-6.6173,-6.6395,-6.6401,-6.6406,-6.641,0,-6.6205,-6.616,-6.6214,-6.6255,-6.6299,-6.6326,-6.6343,-6.6388,-6.6276,-6.633,-6.6402,-6.6436,-6.6504,-6.6567,-6.6603,-6.6591,-6.6484,-6.6468,-6.6507,-6.6539,-6.6564,-6.6551,-6.5973,-6.6456,-6.6451,-6.6448,-6.6445,-6.6443,-6.6546,-6.6632,-6.662,-6.6685,-6.6686,-6.6705,-6.6779,-6.6737,-6.6795,-6.6841,-6.6775,-6.6866,-6.686,-6.6897,-6.6898,-6.6968,-6.6887,-6.6944,-6.6957,-6.6973,-6.6996,-6.6555,-6.6975,-6.6973,-6.6972,-6.6971,-6.697,0,-6.6991,-6.6975,-6.7036,-6.7063,-6.7114,-6.7006,-6.7019,-6.7069,-6.715,-6.7154,-6.7199,-6.7283,-6.7343,-6.7297,-6.7348,-6.7413,-6.7364,-6.7429,-6.7423,-6.7422,-6.7066,-6.7027,-6.7468,-6.7468,-6.7467,-6.7467,-6.7467,-6.7467,-6.7228,-6.7368,-6.7323,-6.7462,-6.7445,-6.7531,-6.7548,-6.7565,-6.7567,-6.7666,-6.7715,-6.7684,-6.7668,-6.7716,-6.7767,-6.7752,-6.7776,-6.7859,-6.7827,-6.7496,-6.7447,-6.74,-6.7362,-6.7866,-6.7867,-6.8175,-6.8178,-6.8181]},{"header":{"parameterUnit":"m.s-1","parameterCategory":1,"la1":30.2991,"la2":30.254,"lo1":-89.0895,"lo2":-89.0444,"dy":0.0017,"dx":0.0017,"nx":28,"ny":28,"refTime":"2025-11-29T03:00:00:Z","depth":0,"parameterNumber":3,"parameterNumberName":"V-component_of_WINDS"},"data":[0,0,0,0,0,0,0,0,0,0,0,0,0,0,0,0,0,0,0,0,0,0,0,0,0,0,0,0,0,0,0,0,0,0,0,0,0,0,0,0,0,0,0,0,0,0,0,0,0,0,0,0,0,0,0,0,0,0,-2.5801,-2.5801,0,-2.5857,-2.5857,-2.5858,-2.5864,-2.5863,-2.5863,-2.5862,-2.5916,-2.5918,-2.592,0,0,0,0,0,0,0,0,0,0,0,0,0,-2.5693,-2.5695,-2.5801,-2.5801,-2.5802,-2.5857,-2.5857,-2.5858,-2.5864,-2.5863,-2.5862,-2.5862,-2.5916,-2.5918,-2.592,0,0,0,0,0,0,0,0,0,0,0,0,0,-2.5744,-2.5696,-2.5801,-2.5812,-2.5813,-2.5857,-2.5858,-2.5858,-2.5864,-2.5863,-2.5862,-2.5861,-2.5915,-2.5918,-2.5921,-2.5956,0,0,-2.593,-2.5931,0,0,0,0,0,0,0,0,-2.5741,-2.5748,-2.5809,-2.5811,-2.5813,-2.5852,-2.584,-2.5891,-2.5864,-2.5845,-2.5862,-2.5861,-2.5896,-2.59,-2.5912,-2.5959,-2.5961,-2.593,-2.5932,-2.5933,-2.5934,0,0,0,0,0,0,0,-2.5737,-2.5745,-2.5823,-2.581,-2.5812,-2.5812,-2.5818,-2.5849,-2.5874,-2.5846,-2.5847,-2.5853,-2.5896,-2.591,-2.5914,-2.5962,-2.593,-2.5933,-2.5934,-2.5936,-2.6037,-2.6038,0,0,0,0,0,0,-2.5732,-2.5742,-2.5821,-2.5824,-2.5774,-2.5815,-2.5822,-2.584,-2.5874,-2.5878,-2.5854,-2.5854,-2.5905,-2.591,-2.5916,-2.5957,-2.5933,-2.5936,-2.5938,-2.6036,-2.6037,-2.6038,0,0,0,0,0,0,-2.573,-2.5739,-2.5819,-2.5784,-2.5794,-2.5817,-2.5839,-2.5842,-2.5855,-2.588,-2.5884,-2.5863,-2.5904,-2.5911,-2.5946,-2.5959,-2.5937,-2.594,-2.6035,-2.6036,-2.6037,-2.6042,0,0,0,0,0,0,-2.5727,-2.5738,-2.5754,-2.5784,-2.5796,-2.5849,-2.584,-2.5844,-2.5861,-2.586,-2.589,-2.5894,-2.5904,-2.5941,-2.5949,-2.5963,-2.5942,-2.6034,-2.6035,-2.6037,-2.6041,-2.6044,-2.6046,0,0,0,0,0,-2.5723,-2.5753,-2.5754,-2.5764,-2.5815,-2.585,-2.5857,-2.5869,-2.5862,-2.5876,-2.5891,-2.5893,-2.5957,-2.5945,-2.5953,-2.5969,-2.6033,-2.6035,-2.6037,-2.604,-2.6043,-2.6046,0,0,0,0,0,0,-2.5723,-2.5757,-2.5759,-2.58,-2.5822,-2.5851,-2.587,-2.5873,-2.5897,-2.5896,-2.5909,-2.5916,-2.5949,-2.5962,-2.5948,-2.6003,-2.5994,-2.5998,-2.5993,-2.5996,-2.5999,-2.5994,-2.5945,0,0,0,0,0,-2.5728,-2.5755,-2.5783,-2.5816,-2.5827,-2.5846,-2.5862,-2.587,-2.5893,-2.5902,-2.592,-2.5941,-2.5966,-2.5982,-2.6006,-2.6043,-2.6048,-2.6057,-2.606,-2.6062,-2.6065,-2.6082,-2.6086,-2.6045,-2.6045,-2.6045,0,0,-2.5738,-2.576,-2.5776,-2.5816,-2.5834,-2.586,-2.5854,-2.5882,-2.5901,-2.5906,-2.5939,-2.5953,-2.5977,-2.6012,-2.6028,-2.6024,-2.6077,-2.6064,-2.6066,-2.6068,-2.6085,-2.6089,-2.6092,-2.6046,-2.6046,-2.6045,0,0,-2.5769,-2.579,-2.5818,-2.5836,-2.5864,-2.5876,-2.5883,-2.5911,-2.592,-2.5954,-2.5957,-2.5979,-2.6022,-2.6038,-2.6052,-2.6087,-2.6088,-2.6094,-2.6107,-2.6124,-2.6127,-2.613,-2.614,-2.6144,-2.6097,-2.6097,-2.6097,0,-2.5778,-2.5819,-2.5832,-2.586,-2.5876,-2.5882,-2.5909,-2.5926,-2.5959,-2.597,-2.5965,-2.6017,-2.6034,-2.6072,-2.608,-2.6092,-2.6098,-2.6091,-2.6126,-2.6129,-2.6132,-2.6141,-2.6146,-2.6097,-2.6097,-2.6097,-2.6097,0,-2.5827,-2.5854,-2.5874,-2.5906,-2.5925,-2.5952,-2.5968,-2.5985,-2.599,-2.6002,-2.6034,-2.6055,-2.6082,-2.6092,-2.6097,-2.6129,-2.6126,-2.6123,-2.6114,-2.6136,-2.6145,-2.6149,-2.6098,-2.6098,-2.6098,-2.6098,0,0,-2.5861,-2.5899,-2.5906,-2.5919,-2.5949,-2.597,-2.5996,-2.6023,-2.6036,-2.6058,-2.6079,-2.6114,-2.6111,-2.6127,-2.6135,-2.615,-2.6173,-2.6145,-2.6146,-2.6148,-2.6206,-2.6207,-2.6212,-2.6174,-2.6175,-2.6175,-2.6204,0,-2.5894,-2.5943,-2.5954,-2.5995,-2.6019,-2.6024,-2.6046,-2.6066,-2.6077,-2.6098,-2.611,-2.6134,-2.6129,-2.6138,-2.6154,-2.6167,-2.6184,-2.6165,-2.6192,-2.6192,-2.6184,-2.6217,-2.6219,-2.6245,-2.6208,-2.6208,-2.6209,0,-2.594,-2.5963,-2.6006,-2.603,-2.6041,-2.6061,-2.6085,-2.6106,-2.6127,-2.6134,-2.615,-2.6155,-2.6181,-2.617,-2.6204,-2.6191,-2.6202,-2.621,-2.6211,-2.6213,-2.6201,-2.6219,-2.6253,-2.6257,-2.6215,-2.6215,-2.6214,0,-2.5958,-2.6,-2.6031,-2.6042,-2.6072,-2.6085,-2.6098,-2.6118,-2.6133,-2.6153,-2.6163,-2.6186,-2.6198,-2.6215,-2.6226,-2.6218,-2.6258,-2.6249,-2.6263,-2.6262,-2.6271,-2.627,-2.6306,-2.628,-2.628,-2.628,-2.6279,0,-2.5994,-2.6019,-2.6039,-2.6057,-2.6085,-2.6097,-2.6124,-2.6136,-2.6154,-2.6174,-2.6179,-2.6197,-2.621,-2.6229,-2.6237,-2.6263,-2.6269,-2.6274,-2.6275,-2.6273,-2.6272,-2.628,-2.6278,-2.6281,-2.628,-2.628,-2.628,0,-2.6019,-2.6033,-2.6066,-2.6091,-2.6097,-2.6116,-2.6137,-2.6154,-2.6165,-2.6189,-2.6195,-2.6212,-2.6235,-2.6247,-2.6275,-2.628,-2.6308,-2.631,-2.6301,-2.6302,-2.6314,-2.6312,-2.6356,-2.6362,-2.6333,-2.6333,-2.6333,0,-2.604,-2.606,-2.6086,-2.6099,-2.6112,-2.6135,-2.6149,-2.6161,-2.6176,-2.62,-2.6213,-2.6236,-2.6255,-2.6291,-2.6305,-2.6326,-2.6327,-2.634,-2.633,-2.6326,-2.6325,-2.6323,-2.6324,-2.6342,-2.6342,-2.6343,-2.6343,0,-2.6075,-2.6081,-2.6103,-2.6126,-2.6143,-2.6162,-2.6181,-2.6191,-2.6205,-2.6221,-2.6245,-2.6259,-2.6288,-2.631,-2.6331,-2.6342,-2.6344,-2.6346,-2.635,-2.6347,-2.6341,-2.6343,-2.6305,-2.6345,-2.6345,-2.6344,-2.6344,-2.6344,-2.6098,-2.6115,-2.6135,-2.6158,-2.6173,-2.619,-2.6206,-2.6219,-2.6239,-2.6263,-2.6268,-2.6292,-2.631,-2.634,-2.6351,-2.6369,-2.6366,-2.6372,-2.6374,-2.6375,-2.6374,-2.6339,-2.6373,-2.6373,-2.6373,-2.6373,-2.6373,0,-2.6132,-2.6145,-2.6166,-2.6191,-2.6209,-2.621,-2.6229,-2.6244,-2.6265,-2.6282,-2.63,-2.6325,-2.6346,-2.6361,-2.6382,-2.6393,-2.6394,-2.6398,-2.6396,-2.6398,-2.6377,-2.637,-2.6396,-2.6396,-2.6396,-2.6396,-2.6396,-2.6396,-2.6152,-2.6179,-2.6187,-2.6221,-2.6233,-2.6257,-2.6268,-2.6283,-2.6296,-2.6324,-2.6342,-2.6351,-2.6367,-2.6388,-2.6406,-2.641,-2.6417,-2.642,-2.6423,-2.6403,-2.64,-2.6398,-2.6392,-2.6422,-2.6422,-2.6444,-2.6444,-2.6444]}]]